Theta_e
338 338 337 337 338 336 334 333 333 334 333 332 331 328 327 326 325 324 322 321 319 318 317 316 316 314 312 312 311 310 309 309 308 307 308 307 308 308 308 310 313 315 318 322 325 327 329 331 333 334 334 331 329 328 326 324 323 323 323 323 323 322 321 322 320 319 319 319 320 320 320 320 320 320 321 321 322 323 323 324 325 325 326 326 325
336 337 336 335 335 334 333 332 332 331 331 330 329 329 327 326 324 323 322 321 320 317 318 318 316 315 314 314 313 313 313 311 309 308 308 308 308 308 309 308 310 313 314 316 320 324 326 328 330 332 334 333 331 330 327 325 324 324 324 325 323 322 322 322 320 319 318 318 319 319 320 319 320 319 320 321 322 322 322 322 322 323 324 323 322
330 330 331 332 332 332 330 330 331 330 331 330 329 328 326 326 325 322 322 321 319 317 318 319 318 316 315 315 315 315 314 313 311 309 307 307 308 308 309 307 307 309 311 313 315 318 321 324 326 329 332 333 334 334 333 331 326 325 324 324 324 323 322 322 321 320 319 318 318 318 319 319 319 319 319 320 321 321 320 321 321 321 321 322 322
327 326 325 323 322 323 325 325 325 326 326 324 324 324 323 321 320 319 320 321 319 318 318 318 319 317 316 315 315 314 314 312 311 309 308 307 308 308 308 309 309 309 310 310 312 313 316 319 322 325 327 330 332 333 333 332 327 326 323 323 323 324 323 322 322 320 320 318 318 318 318 319 319 319 319 318 320 320 320 320 320 320 320 321 321
323 323 322 322 321 321 319 319 319 320 319 320 320 320 320 320 319 319 320 320 320 318 318 318 317 316 316 315 314 314 312 311 310 309 308 307 307 307 308 308 308 309 308 309 310 311 313 315 318 321 324 326 329 331 331 332 332 332 325 323 324 324 323 322 323 321 319 319 318 318 318 318 319 319 319 319 318 319 319 319 319 320 319 320 320
322 321 321 320 319 317 317 316 316 317 319 322 322 322 322 319 317 320 316 319 319 318 318 318 317 316 316 314 313 312 311 310 309 308 307 306 306 306 306 306 306 308 310 308 308 310 311 313 314 317 319 323 324 326 327 329 330 331 331 326 324 324 323 323 322 323 321 320 319 319 318 318 319 319 319 319 319 318 318 318 319 319 318 319 319
319 319 319 319 318 316 315 314 316 317 318 319 319 319 318 317 317 318 319 319 319 317 318 317 316 316 315 313 313 311 310 309 309 308 307 307 306 306 306 305 306 307 308 308 307 308 309 312 314 314 318 319 320 322 324 326 328 330 331 331 328 325 324 323 323 323 323 323 323 320 318 318 318 319 319 319 318 318 317 318 318 318 318 318 318
316 317 316 316 316 314 314 314 314 315 315 316 317 317 316 316 317 318 319 319 319 318 317 315 315 314 314 312 311 310 309 309 308 308 307 306 305 306 305 305 306 305 304 305 307 309 306 308 311 314 315 315 317 319 321 323 325 327 329 330 330 329 327 324 324 324 324 323 323 319 318 319 319 319 319 319 319 318 318 317 317 317 318 318 317
313 314 313 314 314 313 314 314 313 313 313 313 312 313 315 315 313 313 315 316 316 315 315 313 312 311 311 311 311 309 309 309 308 307 307 305 305 305 305 305 305 303 305 306 306 306 308 305 307 308 309 310 313 316 319 321 323 324 326 328 329 330 330 327 325 324 323 322 322 322 321 319 318 319 319 318 319 319 318 318 317 317 317 317 317
307 308 308 309 310 310 311 311 311 310 309 309 309 310 311 313 312 311 311 312 312 310 309 308 308 308 309 309 309 309 309 308 307 303 305 304 304 304 304 303 304 304 304 305 305 305 306 307 307 307 307 308 310 312 315 317 319 322 323 324 325 327 328 329 326 324 322 322 322 321 321 321 319 319 319 318 319 319 318 318 318 317 317 318 317
305 304 305 305 305 307 308 310 310 309 308 307 307 306 308 309 309 310 309 307 306 304 303 303 305 307 307 308 308 308 308 307 305 305 303 304 303 303 305 304 304 304 304 304 304 304 305 305 305 306 306 307 307 309 311 312 313 316 317 320 322 324 326 327 327 326 324 322 322 321 321 321 319 319 319 319 318 319 318 318 318 317 318 317 317
303 303 303 303 304 305 306 306 305 305 303 302 302 302 303 305 305 305 307 307 304 303 302 302 304 306 306 307 308 308 307 306 304 303 304 305 304 302 302 302 303 303 303 304 303 304 304 305 303 305 305 307 308 307 308 309 309 311 312 314 317 321 323 324 325 324 324 324 322 321 321 320 320 320 320 319 319 319 318 318 318 318 317 317 318
303 304 304 303 304 304 304 304 304 304 303 302 303 303 303 304 304 305 304 303 301 301 301 302 304 303 304 306 306 307 305 303 302 302 304 304 302 301 302 303 303 302 302 302 303 303 304 304 304 304 304 305 305 306 307 307 306 308 310 311 313 315 318 321 324 324 324 324 324 322 322 321 321 321 320 320 319 319 319 319 319 318 318 318 318
300 302 302 303 302 302 302 303 303 302 302 302 302 301 302 302 303 304 304 302 300 300 300 301 300 298 299 300 304 306 305 301 300 303 304 303 301 303 302 301 300 301 302 301 303 303 302 302 302 303 304 304 304 305 306 305 306 307 309 310 311 312 312 315 318 321 322 324 325 325 325 323 321 321 322 322 320 319 320 320 319 319 318 319 319
298 298 299 300 300 300 300 301 302 302 301 300 301 300 301 301 301 301 301 302 301 301 300 300 297 298 301 300 299 298 302 300 302 302 301 300 302 303 301 301 301 302 301 301 301 301 302 302 302 302 303 303 303 303 303 302 302 302 304 305 307 310 311 312 312 314 316 320 321 323 324 324 325 322 320 321 323 321 321 320 320 320 319 319 320
295 296 296 296 297 297 298 298 299 300 300 299 298 298 299 299 300 299 300 299 299 299 300 299 298 297 295 296 297 297 297 298 296 300 300 302 303 300 300 301 301 300 301 300 301 301 301 301 301 301 301 302 302 302 302 303 301 300 300 300 301 305 310 311 312 312 312 313 316 318 320 321 323 324 323 320 321 322 322 321 321 321 320 319 320
294 294 294 294 295 295 295 295 295 296 297 296 296 296 297 298 298 298 298 298 298 298 299 299 299 299 297 296 296 296 293 294 295 299 300 300 300 300 301 300 299 299 299 300 301 301 300 301 301 301 301 301 301 301 301 302 302 302 301 299 301 302 303 308 310 312 312 313 313 313 314 317 319 321 323 324 324 325 325 325 322 322 321 320 320
293 293 293 293 293 294 294 293 293 293 294 294 294 293 294 294 295 296 296 298 298 297 296 299 299 298 298 297 296 293 291 293 295 293 299 301 299 300 300 299 299 298 299 299 299 299 299 300 300 300 301 301 301 301 301 301 300 301 300 301 303 305 305 307 311 312 313 314 314 314 314 314 315 317 319 321 323 324 324 324 324 324 323 321 321
292 292 292 292 293 293 293 293 293 293 293 293 292 292 293 294 294 294 293 295 296 293 293 295 298 297 298 298 297 296 296 293 291 292 291 296 298 298 298 298 297 297 298 298 298 298 298 298 299 300 300 300 300 300 300 300 300 300 300 302 305 306 306 306 307 309 311 312 313 314 314 314 313 315 316 318 319 320 321 322 323 323 322 321 321
291 292 292 292 292 292 292 292 291 291 291 291 291 292 292 293 293 293 292 292 293 291 291 292 290 291 294 294 295 296 297 296 294 291 290 288 290 295 297 296 295 296 296 295 296 296 296 297 298 298 299 299 300 300 300 300 300 300 300 301 303 305 305 305 306 306 307 310 312 313 314 315 315 315 315 315 316 317 317 317 321 323 323 322 321
291 291 291 291 291 291 291 291 291 290 290 291 291 291 291 291 291 291 291 291 291 291 290 289 290 289 289 290 291 292 294 295 294 293 289 287 287 288 288 292 293 294 293 295 295 294 295 296 297 298 299 299 300 300 300 300 299 300 300 300 302 305 304 304 303 303 304 304 307 309 312 313 314 315 315 316 316 316 316 316 317 322 323 322 322
290 290 290 290 290 290 290 290 290 290 289 290 290 290 290 290 291 290 291 290 291 291 290 290 290 290 290 290 288 288 289 289 289 289 289 290 286 286 287 286 285 289 292 292 293 293 294 295 295 297 298 298 299 299 300 300 300 300 299 298 299 301 302 302 302 303 303 304 305 306 308 310 311 313 315 316 316 316 316 317 316 318 323 323 323
289 289 290 290 290 290 289 289 289 289 289 289 289 289 289 290 290 291 290 289 289 290 290 290 290 290 290 289 288 288 287 286 286 287 287 286 285 285 286 286 286 286 290 291 291 292 294 294 294 295 296 297 298 298 299 299 296 297 295 296 297 297 299 301 302 302 302 303 303 304 305 307 309 310 312 313 314 315 316 317 316 316 319 323 323
289 288 289 289 289 289 289 289 288 288 288 288 288 288 289 289 289 289 289 289 289 289 289 288 289 289 289 289 289 290 289 288 288 288 287 286 286 285 285 286 286 287 289 291 292 291 292 292 293 295 295 296 296 297 298 298 297 295 295 295 296 297 299 301 301 300 301 301 302 302 303 304 304 305 308 311 313 314 315 315 316 316 315 316 321
287 287 288 288 288 288 287 287 287 287 287 287 287 288 288 288 287 288 288 287 287 288 287 287 288 287 287 288 289 288 288 289 289 288 289 288 287 284 286 287 284 285 287 289 288 291 291 292 294 294 294 294 295 296 296 297 296 295 294 294 296 296 297 297 298 299 300 300 301 302 303 303 304 305 306 307 309 312 314 315 315 316 317 315 315
287 286 287 287 287 287 287 287 287 287 287 287 287 287 287 287 287 286 287 287 287 287 287 287 287 287 287 287 287 287 288 288 288 288 287 286 285 285 284 285 285 284 286 286 288 287 289 291 292 292 294 295 294 295 295 294 295 294 293 293 296 297 297 297 298 299 300 301 301 301 301 301 303 304 304 306 308 309 311 313 314 315 316 317 316
286 287 287 287 287 287 286 286 286 286 286 286 287 286 286 287 286 286 286 286 286 286 286 286 286 286 286 286 286 287 287 287 287 287 287 287 286 285 284 282 282 284 283 285 286 286 286 290 292 292 292 292 293 294 294 294 294 294 291 294 293 294 296 298 299 300 300 301 301 301 301 301 302 303 304 303 304 306 308 309 310 312 314 314 315
287 286 286 286 286 286 286 285 286 286 285 285 285 285 285 285 285 285 285 286 285 285 285 285 285 285 285 286 285 285 286 286 287 286 287 287 286 286 285 284 281 279 282 282 284 285 289 287 290 292 292 292 293 292 293 294 294 293 290 293 293 293 295 296 298 299 299 300 300 300 300 301 301 301 302 303 303 303 304 305 306 306 306 306 307
286 286 285 285 285 285 285 284 284 285 284 284 284 284 284 284 284 284 284 284 284 284 284 284 284 285 285 285 284 285 285 286 286 286 286 286 286 286 286 284 284 281 279 280 281 282 286 288 285 288 291 292 292 293 292 291 291 290 291 292 293 293 294 295 297 298 299 299 299 299 300 300 300 301 301 302 303 303 304 304 305 306 307 307 308
285 285 285 284 284 284 284 284 284 284 283 283 283 283 283 284 283 283 283 283 283 284 284 284 284 284 284 284 284 284 285 285 285 285 285 285 285 285 285 286 285 282 281 279 280 284 284 287 288 287 289 290 291 291 291 291 291 291 291 291 292 293 294 295 295 296 297 298 298 298 298 298 299 299 300 300 301 302 303 304 304 305 306 307 308
284 284 284 283 283 283 283 283 283 283 283 282 282 282 283 282 283 283 283 282 282 282 283 283 283 283 282 282 283 283 284 284 284 284 284 284 284 285 284 285 284 284 283 282 279 283 286 284 286 288 288 289 289 289 290 291 291 290 290 290 291 291 292 293 293 294 295 296 296 296 297 297 298 298 299 300 300 301 302 303 303 303 304 305 308
283 283 283 282 282 282 282 282 281 282 281 281 281 281 281 281 281 281 281 281 281 281 282 282 282 282 282 281 282 282 282 282 282 283 283 283 284 283 283 283 283 283 283 282 280 280 285 285 286 287 288 288 289 288 288 289 290 289 291 290 291 290 290 291 292 293 294 294 294 295 296 297 298 298 298 299 300 301 301 301 302 303 303 303 304
282 282 281 281 281 281 281 281 280 280 280 280 280 280 280 280 280 280 280 280 279 280 280 280 281 281 281 280 281 281 282 281 281 282 282 282 282 282 282 282 282 283 282 281 280 280 282 285 285 285 287 288 286 288 287 288 288 289 289 290 290 290 290 291 290 290 293 294 294 294 295 296 297 297 298 298 299 300 300 301 302 302 302 303 304
281 280 280 280 280 280 280 279 279 279 279 279 279 279 279 278 278 279 279 278 278 278 279 279 279 280 280 279 280 280 281 280 280 280 280 281 281 280 281 281 281 281 282 281 279 279 278 282 282 285 285 286 284 287 286 286 286 288 287 288 289 289 289 289 290 290 291 293 293 293 294 295 296 297 298 298 299 299 300 300 300 301 301 302 302
280 279 279 279 279 279 278 278 278 278 278 278 278 277 277 277 277 277 278 277 277 277 277 278 278 279 278 279 279 279 280 279 279 279 279 279 280 279 279 280 279 280 281 281 279 278 278 279 282 282 283 284 284 284 286 286 286 286 286 286 287 288 289 289 289 290 291 291 292 293 294 294 295 295 296 297 297 298 299 299 299 299 299 300 300
278 278 278 278 278 278 277 277 277 277 276 276 276 277 276 276 276 276 276 277 277 277 277 277 277 277 277 277 278 278 278 277 277 277 278 279 278 278 278 278 278 278 279 280 280 279 278 278 280 281 282 282 283 284 285 285 285 285 285 286 287 287 288 289 289 289 290 291 291 292 293 293 293 295 295 295 296 297 297 298 298 299 299 299 299
277 277 277 277 277 277 276 276 276 276 275 275 275 275 275 275 275 275 276 276 276 277 277 277 277 277 277 276 276 277 276 276 276 276 277 276 277 277 277 277 277 278 279 279 279 279 278 277 278 280 281 282 282 283 284 283 283 284 285 285 285 286 286 288 288 289 289 291 291 291 291 291 292 293 294 295 295 296 296 297 298 298 298 298 298
276 276 276 276 276 275 275 275 275 274 275 274 274 274 274 275 275 275 276 276 276 276 277 276 276 276 276 276 276 276 276 275 275 276 276 276 276 276 276 277 277 278 277 278 278 278 278 277 278 278 280 280 280 281 283 283 282 282 282 284 285 285 285 285 286 287 289 289 290 290 290 291 291 292 293 294 295 295 295 296 296 297 297 297 297
275 275 275 274 274 274 274 274 273 273 273 273 274 274 274 274 275 276 276 276 276 276 276 276 276 276 276 276 276 276 275 275 275 275 275 275 275 275 276 276 276 276 276 276 276 276 276 276 276 277 277 279 279 278 281 282 282 282 281 281 281 283 285 284 284 286 287 287 289 291 290 290 289 290 290 291 292 293 294 294 294 295 295 295 296
274 273 273 273 273 273 273 273 273 273 273 273 273 273 274 275 275 276 276 276 276 276 276 276 276 276 276 275 275 275 275 275 275 275 274 274 275 274 275 275 275 275 274 275 275 274 274 274 274 275 276 276 277 278 279 280 279 279 281 280 279 280 281 283 284 283 285 285 285 286 288 290 290 290 291 291 291 292 292 293 294 294 293 294 295
273 273 272 272 272 272 272 272 272 272 272 272 272 272 273 274 275 275 275 275 275 275 275 275 275 275 275 275 275 275 275 275 275 275 275 275 274 273 274 274 273 273 273 273 272 272 272 272 272 273 273 273 274 275 275 276 276 276 278 279 278 280 281 281 283 285 285 284 285 286 286 287 287 287 288 289 289 291 291 293 293 292 292 293 294
272 272 272 272 272 271 271 271 271 271 271 272 271 271 274 274 275 274 274 274 275 274 274 274 274 275 274 275 275 275 274 274 274 275 275 275 275 274 273 273 273 272 272 271 271 272 272 271 271 272 271 272 273 274 274 275 277 277 276 277 276 277 278 278 280 282 285 285 284 284 285 287 287 287 288 287 289 290 290 290 290 291 292 293 294
271 270 271 271 271 271 270 270 270 270 271 271 271 273 274 275 274 274 274 274 274 274 273 273 273 273 274 274 274 274 273 273 273 273 274 274 275 275 275 275 275 273 271 271 271 271 271 271 271 271 271 271 272 274 274 274 275 275 275 276 276 276 275 275 274 277 281 282 282 281 281 284 285 284 285 286 287 288 289 290 291 292 292 292 293
270 270 270 270 270 270 270 270 270 270 270 270 272 273 274 274 275 274 274 274 273 273 273 273 273 273 273 272 273 273 272 272 272 272 273 273 274 274 274 274 274 275 275 273 271 270 270 270 270 270 271 271 272 273 273 274 273 274 275 275 275 274 274 274 274 274 278 281 279 278 278 281 282 281 281 283 285 287 288 290 291 291 292 292 292
269 269 269 269 269 269 269 268 268 269 269 270 271 272 273 274 275 275 273 273 273 272 273 273 272 272 271 271 271 271 271 272 272 272 272 272 273 273 273 273 274 274 275 276 276 274 273 271 271 270 271 272 271 272 274 274 275 274 274 274 275 275 275 274 275 276 278 281 279 278 277 280 282 281 281 283 284 285 287 289 290 291 291 292 292
268 268 268 267 268 268 268 267 267 268 268 269 270 272 273 273 274 274 273 273 272 272 272 272 271 271 271 270 270 270 271 271 271 271 271 272 272 271 271 272 272 273 275 276 276 276 276 274 273 271 273 274 272 274 275 276 274 273 273 273 274 274 275 275 277 277 278 280 277 277 276 278 281 281 280 282 284 285 285 287 289 290 290 291 291
267 267 267 267 266 266 266 266 266 266 267 269 270 271 272 273 274 274 272 272 271 271 271 271 271 270 270 270 270 270 270 270 271 272 271 271 271 271 271 271 272 273 274 274 275 275 275 275 274 274 274 275 275 276 276 276 276 275 276 275 276 276 276 277 277 277 277 279 279 278 274 277 281 279 280 282 283 284 285 287 288 289 289 290 291
267 266 266 266 265 265 265 265 265 265 266 268 269 270 271 272 273 271 271 270 270 270 270 270 270 271 271 270 270 270 270 270 272 274 274 273 272 271 271 272 272 273 274 276 277 278 277 276 276 276 276 277 278 277 278 278 278 278 278 278 278 276 275 274 273 275 275 278 278 276 274 276 279 279 279 282 283 283 284 285 287 288 289 289 290
266 266 265 265 265 264 263 263 263 264 265 266 268 269 270 272 271 270 270 269 269 269 269 270 270 270 270 270 270 270 270 271 273 275 275 275 272 272 272 272 273 274 274 276 278 279 279 280 279 280 280 280 280 280 281 281 280 279 277 275 273 274 273 271 272 273 273 276 277 278 275 274 277 277 277 278 280 281 282 283 285 288 289 289 289
265 265 264 264 264 264 263 263 263 263 263 265 268 269 270 271 271 269 269 269 268 268 269 270 270 270 271 271 272 271 271 271 274 275 276 275 273 273 273 273 272 272 273 275 276 276 279 279 280 280 280 280 280 280 281 281 280 280 276 272 274 274 272 272 271 272 273 275 276 277 274 273 275 276 275 277 279 280 281 282 283 285 287 288 289
264 264 264 263 263 263 263 263 263 263 263 264 266 268 269 270 270 270 269 269 268 268 268 268 269 270 270 272 272 273 273 273 276 277 277 276 274 273 273 273 272 272 273 275 275 275 275 276 276 276 277 278 277 277 277 279 279 279 277 275 275 274 272 272 272 272 270 272 276 278 273 274 275 276 277 275 275 279 282 282 283 284 285 286 286
Wind_Speed
5 5 4 6 5 5 5 4 3 2 1 2 3 3 2 0 1 1 1 2 2 3 1 2 2 2 2 2 3 3 2 3 2 2 2 3 3 2 3 5 7 8 8 9 9 10 10 11 11 13 13 9 11 10 7 6 5 4 6 7 7 3 4 8 5 3 1 2 4 6 6 4 4 6 5 5 5 1 1 1 2 2 2 4 5
5 5 5 5 5 4 4 4 3 2 2 3 2 1 1 1 1 0 1 2 2 3 2 2 2 2 3 3 3 3 3 3 3 3 3 2 2 2 3 2 4 6 7 8 9 10 10 11 11 12 13 10 7 7 8 9 6 6 7 9 7 6 3 9 5 3 3 2 3 5 5 5 5 4 6 6 7 6 3 3 2 2 3 1 4
5 6 4 4 3 1 3 3 2 1 1 3 3 2 2 1 1 1 0 2 3 2 2 3 3 3 3 4 4 4 4 3 3 3 3 3 3 3 2 3 2 4 6 7 7 8 9 10 11 12 12 14 14 11 11 9 9 6 6 6 9 7 6 8 7 7 3 2 3 3 6 5 5 5 5 6 7 6 4 5 5 5 3 5 5
4 5 5 5 5 5 4 4 4 3 3 3 3 3 3 3 3 3 2 2 2 3 2 4 5 5 4 4 4 5 5 5 4 4 4 4 3 3 3 2 4 3 4 4 6 7 8 8 9 10 11 12 13 13 12 14 4 9 5 4 7 8 7 6 9 7 5 5 2 2 5 6 7 6 4 5 6 6 5 5 6 6 6 6 6
7 7 7 6 6 5 5 5 6 4 4 5 5 3 3 3 3 2 3 2 2 2 2 2 2 2 3 3 4 5 4 5 5 5 5 4 4 4 4 3 3 4 5 2 3 5 6 7 8 9 9 11 11 12 13 14 14 14 10 7 8 9 8 7 7 7 9 7 5 4 4 5 7 8 7 5 5 6 7 6 5 6 6 7 8
7 6 6 7 7 6 5 5 5 4 2 4 4 3 3 4 3 2 3 3 2 1 1 1 1 1 1 0 2 2 3 4 4 4 5 4 4 4 4 4 4 3 1 3 3 4 4 6 7 7 9 8 10 10 12 13 14 13 15 10 8 10 9 8 6 9 8 9 8 7 6 4 6 7 8 7 7 6 6 8 7 5 5 7 9
7 6 7 7 6 6 7 5 4 2 4 5 4 4 4 4 2 2 1 2 2 1 1 1 1 1 1 1 1 1 2 2 3 3 3 4 4 4 4 4 4 4 3 4 3 4 3 6 7 8 8 9 9 10 10 10 11 13 14 14 12 11 11 8 7 9 10 13 11 8 5 5 6 7 8 9 8 8 8 8 9 10 9 9 9
8 6 8 7 7 6 6 5 4 4 5 4 4 4 3 2 2 2 3 2 2 3 2 3 3 3 2 2 1 1 1 2 2 3 2 2 3 3 3 3 4 3 5 4 4 3 3 7 9 9 9 9 9 10 10 10 10 11 12 13 14 13 13 11 9 10 10 10 10 3 6 6 7 9 10 11 10 9 9 9 10 10 10 10 10
9 9 9 9 8 7 7 7 5 6 5 5 5 4 3 2 2 2 2 3 2 3 2 3 3 4 3 3 2 2 2 2 2 1 1 2 2 2 3 2 3 3 3 4 4 4 2 1 6 7 8 8 10 10 10 11 11 11 11 13 13 13 14 14 12 10 8 9 10 11 9 7 7 9 10 11 11 11 10 10 10 11 11 11 11
8 8 7 7 7 7 7 7 7 6 5 5 5 4 4 4 3 3 4 4 4 5 5 5 4 4 4 4 3 3 3 2 1 1 1 2 2 2 2 2 2 2 2 2 3 3 4 2 4 6 6 4 7 9 10 11 11 11 12 13 14 14 14 15 14 10 8 8 9 11 12 11 9 11 11 10 10 11 12 12 10 11 11 12 12
8 7 7 6 7 7 7 8 6 6 6 6 7 7 7 6 6 4 3 5 4 5 5 6 5 5 4 5 4 4 3 2 1 1 1 2 2 2 1 1 1 1 2 2 2 3 3 4 4 4 3 2 6 8 9 10 11 11 12 13 14 14 15 15 16 15 13 10 10 10 12 13 12 13 14 12 12 12 14 13 12 10 11 12 13
8 7 8 8 8 8 8 8 8 7 8 9 8 7 8 6 6 6 5 4 7 7 7 7 6 6 4 5 5 5 4 1 1 2 2 3 3 2 3 2 2 2 2 3 2 3 3 3 4 3 4 4 4 7 8 9 9 11 12 13 14 14 14 14 16 16 16 15 12 12 13 13 15 17 14 14 14 12 13 14 12 10 10 12 13
9 9 9 10 9 8 8 9 9 9 9 9 8 8 7 6 4 5 7 7 8 8 9 8 5 7 7 6 6 3 2 1 2 3 4 4 2 2 3 3 4 4 4 3 3 3 4 4 4 4 5 5 5 4 6 8 8 9 10 11 13 14 14 14 15 16 16 16 16 15 15 14 15 16 13 14 15 14 15 16 13 11 12 13 13
9 10 10 9 9 9 9 8 8 8 8 8 9 8 9 9 7 5 7 7 7 9 9 8 6 8 9 8 2 4 4 4 4 7 7 4 2 3 5 5 6 5 5 5 4 5 5 5 5 5 5 5 5 6 5 5 5 5 8 10 12 13 14 14 15 16 17 17 17 16 16 16 17 17 18 17 16 15 15 18 13 12 12 14 15
10 9 8 9 9 8 8 7 8 7 7 9 9 10 9 10 10 7 5 6 6 7 9 9 6 8 6 5 5 7 4 3 7 11 6 4 3 4 5 5 6 6 5 6 7 7 6 6 6 6 6 6 5 5 6 6 6 7 10 12 12 13 14 14 15 16 17 19 19 18 18 18 17 17 18 19 18 17 17 18 13 16 15 15 17
11 10 9 10 9 9 8 8 8 8 8 9 10 10 10 10 9 10 7 6 7 7 9 8 7 8 7 5 6 4 4 4 12 7 2 5 7 6 5 7 8 8 7 8 8 7 7 7 7 7 7 6 6 6 6 6 8 8 9 10 10 13 14 15 15 15 16 16 18 20 19 18 18 18 18 18 20 17 20 20 17 17 16 16 17
11 11 10 11 10 9 9 9 9 9 9 9 10 10 9 9 9 9 10 7 7 6 7 8 10 8 6 5 3 4 4 8 12 2 2 8 5 5 7 7 7 8 8 7 7 7 7 7 7 7 7 7 7 6 7 7 7 7 8 8 7 10 12 15 16 17 16 17 17 17 18 20 19 19 19 20 21 21 20 21 21 18 19 18 18
11 11 11 10 11 10 10 10 10 9 9 9 9 9 10 10 9 8 9 9 6 7 7 6 7 9 8 6 3 3 7 8 7 5 8 2 2 4 6 6 7 9 8 7 8 8 7 7 8 8 8 7 7 7 7 7 7 6 7 8 12 14 13 15 16 17 17 17 17 17 18 18 19 20 22 22 22 22 22 21 20 22 22 17 18
11 11 11 11 10 10 10 10 9 9 9 9 9 9 8 8 8 9 8 8 8 7 8 7 5 8 6 5 4 2 3 5 5 8 9 2 2 6 5 4 9 9 6 7 9 8 8 8 8 8 8 7 7 7 7 8 9 8 9 12 14 14 15 15 16 17 17 18 18 18 18 19 19 20 21 21 23 23 22 22 20 22 19 17 19
10 11 11 10 10 10 10 9 9 9 8 9 9 8 7 7 8 8 8 8 8 7 7 7 7 7 7 7 6 4 2 3 3 4 6 10 10 5 1 8 8 6 6 9 8 8 10 8 8 8 7 8 7 7 7 7 7 8 7 10 14 15 16 16 16 16 17 18 18 19 19 19 19 20 21 21 22 23 22 22 20 20 21 20 19
10 10 11 10 9 9 9 9 9 8 8 7 8 8 9 9 9 8 8 7 7 6 6 6 6 6 6 7 6 6 4 3 2 5 6 8 9 9 10 7 5 4 7 6 7 9 9 8 8 8 7 7 7 7 6 6 6 7 8 11 14 16 16 17 17 17 17 18 19 19 19 20 20 20 21 21 21 22 22 21 20 19 22 23 22
9 10 10 10 10 9 9 9 9 8 7 7 7 7 7 7 7 7 7 7 6 6 6 5 4 4 4 4 5 6 4 4 4 6 5 4 8 11 10 12 11 6 5 5 7 8 7 7 8 7 7 7 6 6 6 6 6 6 7 11 14 14 15 15 16 16 17 17 18 18 19 20 20 21 21 21 21 21 21 21 21 19 21 24 23
7 8 9 9 9 9 9 8 8 7 8 8 8 7 6 6 6 6 8 8 6 6 5 6 4 4 5 5 5 5 5 5 6 5 5 7 9 10 10 9 10 11 3 5 7 7 5 6 7 6 7 7 7 6 6 6 6 5 8 9 11 12 13 14 15 15 16 17 17 18 19 19 19 20 21 21 21 21 21 21 21 21 21 22 25
7 7 8 9 7 8 8 8 8 8 8 6 7 6 6 6 6 6 6 7 7 6 6 6 7 5 5 5 4 4 4 4 5 5 5 7 8 10 10 11 10 7 7 6 5 5 4 5 6 5 6 7 7 7 7 6 6 6 5 9 9 11 13 14 15 15 16 16 16 17 17 18 19 19 20 20 21 21 22 22 22 22 22 22 22
7 7 7 9 7 7 8 7 6 7 6 6 6 7 6 5 6 6 6 7 6 6 5 6 6 6 5 5 4 4 4 4 4 5 5 6 7 9 9 9 11 12 8 7 5 4 6 6 5 4 5 6 6 7 7 7 7 6 6 7 7 10 12 12 14 15 16 17 17 17 17 17 18 18 19 20 21 21 21 22 22 22 22 23 23
6 7 6 6 6 6 6 6 6 5 6 5 6 6 6 5 5 6 6 5 5 5 5 5 4 5 5 5 4 4 4 4 5 5 5 6 7 8 10 9 9 12 10 7 5 6 3 6 5 4 5 5 6 7 7 8 8 8 8 7 10 9 8 10 13 15 16 17 18 18 18 18 18 19 18 19 20 21 21 22 22 22 22 22 23
5 5 5 5 5 5 6 5 6 5 5 6 5 5 6 4 4 5 4 4 5 5 4 5 4 6 5 5 5 4 4 4 5 5 5 5 6 7 8 11 11 9 11 9 10 7 8 5 5 5 4 6 6 6 7 7 8 9 9 10 11 13 11 14 16 17 18 18 19 19 19 19 19 20 19 19 19 20 21 21 22 22 23 23 22
4 4 5 5 5 5 5 5 5 5 5 5 5 4 5 4 4 4 4 3 4 5 4 4 4 6 5 5 5 5 5 5 5 5 5 5 6 6 7 7 10 13 11 12 10 10 7 7 6 6 7 6 6 7 6 4 6 8 11 10 10 11 14 15 17 18 19 19 19 19 20 19 20 20 20 20 20 20 20 20 21 21 22 23 23
3 3 4 4 4 4 3 3 4 4 4 4 4 4 4 3 3 3 4 4 4 4 4 4 5 4 4 5 5 5 5 5 5 5 5 6 6 6 6 7 8 10 11 12 12 13 10 7 10 7 5 7 8 7 7 9 10 10 11 11 11 11 13 16 18 19 19 20 19 20 20 20 20 21 21 21 21 21 21 21 21 21 21 22 23
2 2 2 3 3 3 3 3 3 3 3 3 4 4 4 3 3 3 3 4 4 4 3 4 5 4 5 5 5 6 5 5 6 6 6 6 6 6 7 7 7 9 10 13 15 9 12 11 8 11 8 9 9 9 10 11 12 11 11 11 11 11 13 14 18 19 19 20 20 20 21 21 21 22 22 22 22 22 22 22 21 21 22 23 23
2 2 3 3 3 3 3 3 3 3 4 4 4 4 4 3 4 3 3 4 4 4 4 4 4 4 5 6 6 6 6 6 7 6 6 6 6 7 7 7 8 9 10 11 15 11 6 12 13 10 12 12 11 12 10 9 9 10 12 12 12 13 13 14 15 18 19 20 20 20 20 21 22 22 22 22 22 23 23 23 23 22 22 23 23
2 3 3 3 3 3 3 3 3 3 4 3 3 4 3 3 3 4 4 4 4 5 5 4 4 5 6 6 6 6 6 7 7 7 7 7 7 7 8 8 9 9 10 11 13 18 10 11 14 14 14 15 13 13 14 11 9 11 11 11 12 14 12 11 12 13 15 18 20 21 21 22 22 23 23 23 23 24 24 24 24 24 23 23 23
2 2 3 3 3 2 2 3 3 3 3 3 3 3 3 4 4 4 4 5 5 5 5 6 5 5 6 7 7 7 7 7 7 7 7 7 8 8 8 8 9 9 9 10 13 16 14 9 11 12 12 13 15 11 13 12 12 11 10 11 12 12 12 12 12 15 15 17 19 20 21 22 23 23 23 23 23 24 24 24 24 23 23 23 23
2 2 2 2 2 2 2 2 3 3 3 4 4 4 4 5 5 3 4 5 6 6 5 6 6 5 6 8 8 8 7 7 8 8 7 8 8 9 8 8 9 10 9 10 13 14 18 13 12 12 12 10 15 15 13 14 15 13 14 12 11 12 12 12 12 12 15 15 17 19 21 23 24 24 24 23 23 24 24 24 23 22 22 23 23
2 2 2 2 2 2 2 3 3 3 4 4 4 4 5 5 5 5 5 6 6 6 7 7 7 7 7 7 8 7 6 8 8 8 8 8 8 9 10 9 10 11 10 10 11 14 17 17 13 13 12 11 12 14 15 13 15 15 15 15 13 11 10 12 12 12 15 17 19 20 21 22 23 24 24 24 23 23 23 23 23 23 22 22 23
2 2 2 2 2 3 3 3 3 3 4 4 4 4 5 5 5 6 6 6 6 6 7 7 8 7 8 8 8 8 8 9 9 8 8 7 8 9 10 10 10 11 11 10 11 12 14 17 15 12 12 12 11 13 12 13 15 16 14 14 14 13 13 12 13 12 13 18 20 21 21 22 23 24 24 24 24 23 23 23 23 23 23 23 22
2 2 2 2 3 3 3 4 4 4 4 4 5 5 5 5 5 6 6 6 6 7 7 7 7 8 8 8 9 8 8 9 9 8 8 10 9 9 10 10 10 10 10 10 11 11 13 16 17 14 12 13 11 12 12 13 13 15 15 14 13 14 14 13 11 11 16 20 22 23 22 23 23 23 24 24 24 24 24 23 23 23 23 23 21
2 2 2 2 2 3 3 3 3 4 4 4 5 5 5 5 5 6 6 6 7 7 7 7 7 7 8 9 9 8 8 9 9 9 9 10 10 10 11 10 10 10 12 12 11 13 13 15 15 17 14 13 13 11 12 13 13 14 15 15 15 14 14 14 12 10 10 9 10 11 14 17 21 23 24 23 24 25 24 23 22 23 22 20 20
2 2 2 2 2 2 2 2 3 3 4 4 5 5 5 6 6 6 7 7 7 7 7 7 8 8 8 8 8 8 9 9 9 9 10 11 10 11 11 11 11 11 12 11 11 12 13 14 15 15 16 14 12 13 11 12 14 13 14 14 15 13 12 12 14 11 10 11 13 15 15 16 18 17 18 20 22 24 24 24 23 23 22 20 20
2 2 2 1 1 1 2 2 3 3 4 5 5 5 5 6 7 7 7 7 8 8 8 8 8 8 8 8 8 9 9 8 8 10 10 10 10 11 10 10 11 11 11 11 11 11 12 13 13 14 13 14 13 11 11 11 12 11 10 11 13 13 15 14 14 15 14 14 14 12 11 13 16 19 24 26 28 28 27 24 24 24 23 22 21
2 2 1 1 2 2 2 2 3 3 4 4 3 5 6 8 7 8 8 8 9 9 9 9 8 8 8 8 8 8 9 13 17 16 15 14 12 12 11 10 11 11 11 10 10 11 11 12 14 13 13 14 12 12 12 11 11 13 12 12 14 14 14 15 16 15 13 14 13 14 12 12 13 12 12 12 12 16 18 19 18 21 21 19 19
2 2 1 2 1 2 3 3 3 3 3 3 4 9 10 9 10 8 9 9 9 10 10 11 10 9 9 9 9 13 15 16 16 17 17 17 17 14 12 11 11 11 11 11 11 11 11 13 13 12 13 13 12 12 13 12 12 13 14 13 14 13 13 12 13 12 12 13 13 14 13 11 12 12 12 12 12 12 11 11 11 12 12 14 18
1 2 1 1 2 2 3 3 4 3 4 4 9 11 13 14 10 10 9 10 10 10 10 10 11 11 11 10 10 11 12 12 12 14 16 18 17 18 18 18 15 12 11 11 11 12 12 12 12 13 13 15 15 13 13 13 12 13 13 13 13 13 13 12 13 12 9 12 14 14 15 13 14 15 14 14 14 14 13 13 15 15 15 17 19
1 1 1 1 2 3 3 4 4 4 5 7 11 12 14 14 13 10 10 9 9 9 10 10 10 10 11 10 9 8 8 9 11 12 15 16 16 17 17 16 16 17 17 13 13 12 12 13 14 14 14 15 15 13 13 12 12 13 13 14 14 15 15 15 14 15 11 12 14 17 19 15 14 15 17 15 14 14 15 18 21 20 18 19 20
1 1 1 2 2 2 3 4 5 5 6 8 11 13 14 15 15 13 10 10 10 11 11 11 11 10 10 10 10 9 9 14 13 12 11 12 14 16 16 16 16 18 18 20 20 16 14 16 16 16 14 15 15 13 12 13 14 16 15 14 14 14 15 15 14 14 13 11 13 15 19 17 13 14 16 14 13 13 15 17 22 22 23 22 22
2 1 1 2 2 3 3 5 5 6 7 8 12 14 15 15 15 13 10 11 11 11 12 11 10 11 11 11 11 11 11 11 11 12 11 12 12 12 12 12 12 16 20 22 24 25 21 16 16 16 16 14 14 14 15 14 15 14 13 15 15 15 15 16 17 16 14 11 13 15 19 20 13 13 16 16 13 13 14 19 25 25 24 24 25
2 2 2 2 2 3 4 5 6 6 7 11 12 14 15 15 15 14 10 10 10 10 11 11 11 11 11 11 12 12 13 12 11 13 14 14 13 13 13 14 15 15 16 16 16 14 14 14 15 16 16 15 16 16 15 14 15 15 14 16 17 17 18 18 16 15 14 11 13 13 18 19 13 14 16 15 14 14 14 19 24 26 26 26 24
2 2 2 2 3 4 4 5 6 8 7 11 12 13 15 14 16 10 8 9 10 10 11 10 10 10 10 11 12 13 13 14 16 21 19 16 15 14 15 15 15 15 15 16 20 19 18 17 16 16 15 18 21 19 18 16 15 14 15 15 12 13 15 15 14 12 13 10 9 12 14 15 11 13 15 15 15 15 14 14 20 25 25 26 27
2 2 2 3 3 3 5 5 7 8 7 9 11 13 14 15 12 8 8 8 9 10 10 10 10 11 10 11 12 13 15 15 19 22 22 21 15 15 15 14 12 13 14 14 19 23 25 27 28 29 29 29 27 27 26 27 21 18 15 16 15 13 14 15 14 12 12 10 10 12 14 17 10 9 14 14 13 14 14 13 12 19 25 25 25
2 2 2 3 3 3 5 6 6 8 8 9 13 14 15 15 12 9 8 8 9 9 10 10 9 10 12 17 17 16 16 16 21 24 24 21 15 15 15 16 16 15 15 14 14 15 22 25 26 26 26 26 26 26 27 27 27 21 15 16 14 13 14 13 15 14 15 13 13 13 15 16 12 12 14 15 16 13 14 14 14 15 22 22 26
2 2 2 3 3 4 5 6 9 10 9 9 11 13 14 14 11 8 8 8 9 9 9 10 10 10 12 15 20 19 18 19 25 24 25 21 16 15 15 15 15 14 12 14 14 15 15 15 15 16 16 17 16 15 16 23 24 22 17 16 13 13 15 15 16 15 15 13 11 10 13 12 10 10 10 12 14 13 11 13 13 13 12 11 13
Wind_Direction
218 209 210 222 209 201 189 172 160 143 169 169 133 127 164 128 184 142 111 109 109 93 70 53 358 24 352 359 346 346 344 325 327 316 303 300 310 53 11 355 345 342 337 333 327 325 329 328 332 331 323 343 206 204 201 181 171 263 269 249 253 279 300 144 131 125 85 342 319 323 321 326 334 320 323 323 304 313 319 54 9 1 9 27 19
242 224 208 215 209 194 174 159 124 163 185 132 122 141 136 196 52 173 136 90 70 61 7 30 5 1 355 341 338 337 330 324 317 308 307 295 295 302 135 356 343 338 340 336 332 329 327 329 329 332 335 327 317 309 256 208 188 219 293 319 309 297 290 134 157 160 170 250 291 300 311 309 301 317 312 317 304 269 261 264 283 355 322 311 12
36 29 15 16 19 34 50 28 94 122 117 100 103 84 73 341 274 280 84 81 75 65 8 4 356 356 360 336 340 325 325 322 312 305 298 295 300 302 278 178 318 318 331 335 333 329 332 329 327 332 329 333 335 334 340 320 196 220 228 272 297 305 94 171 178 177 189 244 244 288 307 305 286 285 301 306 289 293 292 283 289 282 299 310 281
62 67 65 62 55 43 39 54 47 55 44 59 75 71 63 56 36 9 17 36 90 96 56 9 0 0 346 339 334 328 328 328 315 309 304 305 300 299 301 296 201 243 301 324 331 336 327 330 332 331 329 330 332 336 335 341 311 210 208 266 286 283 295 273 185 180 184 194 216 269 284 299 297 282 278 269 282 286 289 282 277 279 289 297 302
58 65 70 67 66 62 61 60 54 41 42 62 70 84 118 113 76 27 21 8 31 74 119 82 22 356 334 343 328 327 330 321 320 316 316 313 309 309 308 304 297 209 210 260 328 324 331 329 331 330 329 333 335 338 334 335 333 335 285 286 284 270 272 297 191 182 181 192 199 216 229 249 276 286 275 270 266 282 286 277 281 304 289 306 293
60 62 72 72 67 70 69 59 50 50 80 93 85 76 74 70 59 21 21 346 354 15 16 44 120 181 225 252 292 322 320 312 313 315 313 306 313 311 304 305 306 304 298 203 231 316 329 333 331 325 331 332 339 332 333 327 331 323 326 293 268 287 285 274 250 208 211 208 216 221 218 236 270 279 274 270 273 267 269 283 279 255 276 278 282
57 74 70 81 76 68 64 54 54 42 63 58 63 56 56 57 44 23 349 307 284 224 288 255 254 235 219 206 216 258 262 285 289 290 287 300 296 295 302 301 305 317 313 319 174 179 352 339 328 333 326 337 331 329 320 323 318 322 318 321 303 287 280 263 252 280 265 271 293 226 228 241 246 263 268 269 270 274 276 272 275 279 276 277 275
34 56 76 76 77 70 66 66 63 66 62 60 57 64 68 72 63 346 321 300 312 332 341 337 330 322 318 291 279 238 263 254 254 256 272 294 292 298 298 303 309 328 333 309 324 25 26 342 339 333 335 332 327 321 317 314 313 311 315 320 323 308 298 281 261 261 276 291 312 234 225 250 259 263 269 274 263 259 267 275 279 279 279 277 276
45 55 73 75 76 72 66 66 64 63 52 47 52 38 46 67 62 30 346 333 344 344 338 347 339 320 303 292 276 263 265 276 260 284 247 249 267 273 284 300 311 305 298 326 324 324 96 25 329 318 321 320 323 317 315 313 313 311 312 314 314 320 321 304 290 258 246 259 284 292 265 229 265 275 276 276 278 278 274 269 271 277 277 277 276
34 42 58 60 62 64 58 50 50 52 50 51 50 42 41 36 45 30 6 347 13 7 358 350 332 310 308 294 290 283 287 274 298 299 285 304 283 293 308 301 287 300 304 310 318 323 320 271 241 261 256 283 311 315 312 310 309 312 315 311 311 311 311 313 300 282 247 250 265 277 287 277 261 270 273 274 275 267 268 269 269 269 276 278 277
27 31 47 47 53 54 57 53 57 56 50 44 39 32 31 32 27 26 43 40 30 21 0 335 312 296 293 302 298 286 285 286 321 43 18 353 346 330 308 319 327 316 327 313 320 313 307 308 317 319 294 203 296 301 305 305 307 311 308 305 305 305 308 306 304 302 295 253 235 247 267 271 269 262 262 264 267 271 274 275 276 276 273 278 279
38 40 48 51 54 52 56 51 52 56 54 49 42 36 29 30 38 24 21 77 42 18 8 338 313 297 287 299 285 282 274 305 35 64 25 20 15 4 21 1 6 18 0 339 338 322 317 312 311 306 309 286 242 277 288 293 298 300 299 300 297 297 298 301 298 294 294 294 281 272 264 264 258 250 260 278 272 258 264 267 266 264 273 277 277
39 44 53 59 59 56 57 58 59 58 59 57 53 46 36 30 42 52 34 37 38 19 7 331 314 337 330 312 302 288 294 40 82 38 2 12 24 44 21 16 32 23 14 353 334 339 328 334 328 322 320 318 297 246 246 264 265 272 283 292 296 295 292 292 290 291 299 300 295 281 268 264 267 270 267 248 267 270 262 265 249 244 256 261 262
36 41 47 52 57 57 54 53 57 61 63 60 56 52 44 39 26 51 50 44 48 21 15 354 13 346 328 333 329 346 80 79 61 354 342 13 53 39 18 40 33 11 358 345 350 352 356 345 338 326 319 317 314 315 312 288 264 268 292 293 293 291 292 290 288 288 290 291 293 302 304 282 265 271 279 274 258 256 267 263 252 235 248 255 253
42 40 43 43 51 55 53 52 50 52 59 54 48 45 38 38 34 28 34 54 54 38 28 25 3 339 314 316 2 348 132 114 8 345 6 61 16 19 39 39 23 11 357 1 360 351 346 341 334 325 321 317 314 313 306 302 300 311 298 295 289 287 287 286 285 284 283 286 289 291 294 301 292 269 265 274 272 253 255 259 234 225 226 242 251
43 44 46 44 43 47 48 46 46 44 49 51 43 40 35 32 31 30 19 42 37 44 40 37 28 2 10 344 316 321 336 8 346 333 83 16 1 32 40 15 15 13 359 349 344 342 337 337 330 327 323 315 313 311 306 306 309 292 279 278 279 285 288 288 287 284 282 280 284 285 284 287 291 296 284 269 275 250 245 257 258 229 235 239 244
46 44 45 46 43 42 44 45 47 45 49 52 50 43 39 37 31 37 29 22 36 35 44 38 40 30 14 351 349 347 11 327 329 330 39 346 43 35 17 9 13 354 342 342 344 341 338 333 332 327 320 317 313 309 306 307 308 313 307 284 271 282 280 288 289 287 285 282 279 276 281 281 282 283 285 280 275 283 289 285 272 237 243 244 240
48 47 45 45 44 42 41 43 44 44 45 51 51 48 40 37 32 33 33 23 25 35 29 35 48 38 39 45 14 345 330 324 327 318 324 314 49 4 2 18 356 344 338 340 345 341 340 333 329 324 320 316 314 311 310 309 311 310 312 316 310 304 298 294 292 294 294 293 286 282 276 275 274 274 275 276 277 281 284 279 276 267 250 246 249
49 47 45 44 45 41 42 43 42 43 41 46 44 43 40 33 31 37 34 27 28 47 33 15 34 38 27 34 39 23 338 333 348 323 328 345 328 338 343 2 348 337 339 346 340 337 337 333 329 327 324 321 317 315 316 313 308 300 289 290 300 304 304 301 297 295 296 296 295 293 288 281 276 273 271 271 274 277 278 278 279 265 242 234 248
52 48 45 42 41 42 40 42 43 40 40 44 42 36 38 38 36 38 41 39 34 39 37 28 26 19 13 17 14 6 18 22 9 341 313 308 313 321 314 338 337 336 352 340 342 343 334 329 325 325 325 322 319 318 318 317 314 311 312 308 310 314 313 310 307 304 300 297 295 293 292 290 286 281 276 274 274 273 272 275 282 264 238 234 240
50 49 45 43 41 41 40 42 41 38 38 42 41 38 36 34 31 33 34 39 39 33 39 35 30 24 8 16 9 6 2 33 5 345 329 315 306 324 318 320 311 320 340 328 339 336 327 322 320 315 314 318 321 324 320 320 318 318 317 317 320 320 319 317 313 309 305 303 300 297 294 291 288 287 284 282 278 276 276 276 273 270 248 238 239
53 48 47 44 42 41 42 41 41 37 36 37 37 38 35 36 35 36 32 38 38 37 34 22 27 25 16 1 13 2 3 1 360 347 326 301 305 317 320 326 325 325 326 321 328 326 317 319 320 318 317 321 324 322 322 317 323 321 317 318 315 316 315 312 310 308 307 304 301 299 297 295 293 289 287 286 284 282 280 277 273 263 256 251 246
51 48 44 40 43 41 41 41 39 37 34 31 29 26 25 26 28 33 36 31 28 27 33 26 6 19 12 10 10 9 358 347 340 341 326 318 314 309 313 311 308 310 308 320 315 310 296 310 309 314 322 320 320 321 321 319 309 302 306 303 309 309 308 309 309 308 307 306 307 305 301 298 296 294 292 288 286 285 282 280 278 273 263 255 253
51 48 39 36 39 40 39 42 40 34 33 30 27 22 22 26 28 27 28 28 26 21 22 20 11 7 10 3 1 353 345 342 335 326 321 316 312 307 311 317 305 288 301 286 254 249 277 282 282 292 308 309 315 317 308 310 315 310 316 322 311 308 310 309 309 308 305 304 303 302 302 302 301 298 293 289 287 284 282 280 279 277 273 267 262
48 49 41 37 38 39 37 36 37 35 31 29 27 23 20 29 29 29 30 27 22 13 22 12 10 4 354 346 348 342 338 337 327 321 318 313 308 306 309 317 306 307 310 310 298 234 239 259 244 254 282 297 304 302 308 310 316 326 336 314 307 300 296 297 299 299 299 297 297 296 296 295 296 297 296 294 290 286 284 282 280 277 275 271 267
54 50 41 40 45 44 43 43 39 35 30 27 26 24 17 24 28 25 25 24 15 9 17 8 4 1 346 338 343 332 330 337 326 321 322 322 316 315 312 307 300 301 304 303 290 305 248 213 228 272 269 265 281 288 296 310 308 332 347 314 304 288 275 282 290 294 296 296 295 294 294 292 290 291 292 293 294 292 288 284 281 280 278 275 270
61 58 49 49 49 48 43 40 35 31 26 23 20 21 16 15 23 20 17 15 4 4 360 359 351 350 343 341 330 322 330 330 326 320 321 313 311 312 314 314 309 297 304 303 306 277 287 293 257 260 259 284 287 284 292 299 308 316 326 314 306 299 290 291 297 298 298 297 296 294 292 291 289 288 288 286 286 288 290 289 287 284 283 282 284
68 59 50 47 42 41 43 40 32 28 26 24 19 16 9 12 17 15 13 12 351 354 352 344 340 334 326 330 321 317 320 320 317 312 307 308 302 299 299 296 305 308 310 305 301 292 302 301 286 270 272 264 271 283 285 286 289 309 306 302 302 299 298 298 299 300 301 300 299 296 294 292 288 287 286 284 283 282 281 282 282 280 278 278 278
66 58 54 53 50 38 42 41 32 25 20 21 16 12 352 6 11 3 7 356 340 339 339 336 330 322 321 318 309 310 308 311 304 298 300 293 291 290 285 287 293 292 302 300 297 303 302 302 301 289 274 280 290 283 277 283 290 298 295 291 287 286 290 294 296 298 298 298 298 297 295 292 290 288 285 283 281 280 280 279 279 279 277 275 274
70 69 69 59 61 45 39 34 27 20 15 13 8 3 353 2 358 357 4 346 335 332 326 324 323 318 313 312 308 306 305 305 301 298 288 289 285 282 282 282 278 278 286 291 290 284 293 294 279 292 295 295 293 285 287 284 280 280 284 283 284 283 284 286 291 292 290 292 293 294 294 292 289 287 284 282 280 280 279 278 278 277 276 275 274
65 59 53 49 40 36 37 22 20 17 14 11 3 359 351 357 349 350 354 342 328 321 316 317 311 311 309 304 304 298 303 300 298 292 288 285 285 285 284 279 273 268 274 280 287 279 272 293 292 285 295 294 290 288 283 280 277 275 280 278 275 279 283 281 273 273 278 283 287 287 285 286 285 283 281 279 278 277 276 276 276 276 276 275 274
65 53 55 47 36 30 26 24 13 16 10 4 357 347 340 354 340 343 340 329 319 315 315 314 304 300 301 299 297 299 301 300 295 293 290 287 285 284 281 277 274 269 269 273 271 281 283 279 283 289 290 292 289 286 286 282 275 252 270 272 274 274 272 274 266 259 261 272 279 281 283 283 282 282 282 280 278 277 275 274 274 274 274 274 273
58 59 52 45 29 25 21 18 17 6 7 359 353 344 345 342 338 332 327 327 325 319 320 314 312 308 304 302 299 295 297 293 295 298 296 293 292 285 284 283 278 275 274 274 277 285 285 276 277 285 291 297 293 287 289 290 289 287 274 274 278 280 278 274 272 266 261 260 266 273 278 281 281 280 279 279 277 275 274 273 272 271 271 271 272
70 56 53 40 28 17 16 17 16 11 2 360 353 350 346 342 338 338 327 329 322 318 316 314 316 314 308 303 303 305 306 300 300 299 299 299 298 293 289 288 287 286 282 282 282 282 288 292 284 282 284 281 284 291 293 298 297 297 293 286 273 265 267 271 273 269 262 262 262 265 269 273 278 280 280 278 276 276 274 274 272 270 268 269 270
84 64 40 33 18 18 13 16 12 8 2 353 350 346 340 337 331 327 324 320 318 316 315 313 314 312 308 305 306 310 312 308 306 303 304 300 298 296 294 293 290 287 285 280 281 282 286 288 290 289 287 281 273 287 294 297 296 295 292 288 284 279 267 260 263 269 267 262 263 264 266 270 272 275 277 277 276 275 274 272 271 269 268 267 267
82 71 53 26 19 17 15 13 9 1 354 347 339 336 330 326 320 316 315 313 308 305 305 305 309 309 303 303 303 312 310 304 304 305 302 301 303 298 296 294 291 290 289 284 277 279 285 290 290 290 293 291 286 284 288 291 293 295 291 290 288 283 281 274 266 261 263 267 266 263 265 269 270 270 271 273 275 274 273 272 270 268 267 264 262
70 55 40 30 18 15 12 7 355 353 346 335 332 325 321 314 311 308 305 303 301 301 299 297 298 298 299 297 301 305 304 301 299 299 303 302 297 294 292 294 291 291 290 287 285 283 284 284 289 290 293 289 289 288 287 289 290 289 292 289 292 293 289 282 278 273 268 258 257 259 260 264 265 266 266 269 272 273 272 270 268 267 266 265 263
71 58 41 24 15 8 1 357 345 335 330 323 320 316 314 311 306 304 302 300 298 297 295 296 298 297 297 298 299 299 298 297 298 301 300 298 298 293 293 293 295 294 293 291 290 289 287 285 288 295 295 296 299 294 297 295 290 288 288 291 292 289 291 292 287 284 285 282 280 266 257 252 254 255 258 260 265 268 270 269 266 266 264 262 262
74 59 38 33 5 5 342 342 329 327 315 312 313 313 311 309 307 305 307 304 300 299 298 297 296 295 296 297 297 296 294 294 296 299 304 302 298 296 296 296 294 293 292 291 291 289 287 287 287 287 293 296 298 300 303 300 293 287 287 289 290 292 289 292 295 296 296 291 282 269 262 265 270 270 269 267 265 265 267 268 269 265 262 261 260
87 69 35 15 347 340 329 322 320 318 311 309 315 319 317 316 313 310 306 303 300 298 296 294 295 294 292 293 290 291 289 292 299 302 301 298 298 295 294 295 295 295 293 294 296 295 293 292 289 294 295 298 300 297 300 301 295 290 289 294 294 299 300 300 295 298 296 293 291 289 281 268 261 259 258 256 257 260 261 263 263 262 260 259 259
86 66 37 358 334 329 322 318 313 314 309 311 321 328 323 318 316 310 305 302 302 299 297 296 296 294 292 290 289 288 294 292 289 287 286 287 290 291 292 294 296 295 294 295 294 292 290 288 289 290 292 293 295 300 301 298 298 300 303 303 292 288 286 287 290 288 290 294 294 294 292 291 286 281 277 274 264 257 256 251 256 258 258 257 255
75 55 18 348 331 330 325 320 318 304 302 297 302 302 304 306 308 303 301 297 296 295 296 297 295 293 292 291 289 288 288 288 288 288 288 286 283 281 285 290 291 291 291 291 290 290 289 288 288 293 293 292 297 299 298 297 298 299 298 295 293 299 302 303 300 299 302 297 298 296 296 297 294 290 280 274 272 267 268 261 259 259 255 249 251
48 43 354 337 340 327 319 314 309 302 292 287 296 302 306 305 303 299 296 295 293 291 289 289 293 295 293 289 288 290 291 287 285 286 289 289 286 286 285 285 286 288 293 292 290 292 293 290 292 292 292 292 294 298 299 304 303 301 298 299 299 298 296 301 296 292 284 302 300 301 294 295 298 293 290 287 289 283 274 266 261 258 255 255 257
34 12 334 327 323 316 310 306 297 294 289 286 297 303 305 303 299 296 293 291 290 288 288 286 287 288 289 292 292 291 289 290 294 293 290 287 287 287 287 288 288 287 284 283 287 287 285 287 286 286 289 289 293 294 295 296 296 294 292 291 288 286 286 283 281 282 295 301 298 292 285 280 277 277 277 274 275 277 273 270 270 263 255 255 256
307 265 294 316 299 304 301 297 295 290 285 289 298 303 302 300 299 297 291 286 285 284 284 284 282 283 286 291 293 291 290 293 291 284 284 286 289 288 287 285 284 280 276 276 277 278 281 281 283 284 282 287 287 288 290 295 296 292 293 289 289 288 287 284 284 289 291 297 292 290 287 284 284 282 280 278 275 272 276 275 268 264 261 256 256
234 260 270 272 279 291 296 295 292 287 286 287 297 301 301 300 299 296 287 286 283 281 280 282 281 282 284 286 288 288 291 290 285 284 284 289 291 289 286 284 279 275 276 274 274 276 276 276 277 277 279 277 280 284 286 288 288 287 288 286 288 286 285 286 292 292 295 296 284 280 277 277 278 280 278 280 279 278 276 274 276 274 267 262 260
223 239 246 255 268 275 283 285 286 282 276 284 295 300 301 300 297 297 290 286 282 279 279 279 279 279 280 281 282 284 286 286 282 283 287 286 284 283 278 271 267 268 269 272 270 270 271 271 270 272 273 271 272 277 281 280 276 274 274 280 285 287 288 289 284 280 276 271 276 273 271 277 281 279 277 281 282 278 274 274 271 273 274 269 264
220 230 246 243 260 264 275 280 282 277 276 286 297 299 299 299 300 297 289 283 279 278 279 278 280 282 281 281 282 283 282 282 282 283 284 285 283 278 275 268 266 264 264 263 264 267 271 270 268 269 268 267 272 275 276 277 278 279 281 283 282 289 290 289 286 289 283 282 288 295 287 286 296 296 293 287 284 282 280 277 276 272 268 268 267
222 234 247 251 254 268 271 272 277 279 282 288 294 297 298 298 300 291 285 280 278 279 279 281 282 282 281 278 279 281 281 279 281 284 286 287 284 276 268 264 262 266 273 273 272 273 275 275 274 274 276 282 285 284 284 282 281 284 287 287 286 290 286 288 286 287 285 288 278 272 282 284 291 291 289 288 291 289 286 286 285 282 280 277 271
236 234 260 263 253 253 264 269 271 281 282 286 292 294 296 295 293 291 287 280 277 278 282 282 282 281 279 278 273 272 277 282 285 284 285 286 283 282 282 283 280 274 270 269 269 267 271 274 276 278 280 285 287 289 289 287 287 287 284 280 283 284 280 279 284 284 284 281 279 281 277 274 293 289 287 290 286 272 269 268 270 273 273 270 270
242 246 252 262 261 264 259 265 274 275 278 283 286 291 293 293 294 286 283 279 279 280 284 287 284 278 276 273 273 274 278 282 285 288 289 289 285 281 280 278 276 269 268 272 271 278 280 277 275 273 272 273 276 279 279 279 279 278 274 274 276 273 276 277 279 284 284 278 278 280 279 286 295 291 295 294 284 282 285 288 280 275 270 269 271